COSMOS 1275 DEB

Satellite information

Favourite Embed

Satellite Type and Status

DEBRISIN ORBIT

Key statistics

Satellite COSMOS 1275 DEB at a glance.

Uptime

16214

Days in orbit

Revolutions

≈ 13.7

Per day

Orbit

LEO

Low Earth Orbit

Inclination

83.0

Latest

Satellite identification and parameters

Extended collection of information and parameters for COSMOS 1275 DEB.

Object identification

Identified? True

Debris? True

Object name: COSMOS 1275 DEB

International designator: 1981-053LH

Object number (NORAD): 17638

Object ID (CCSDS): 17638

Country: COMMONWEALTH OF INDEPENDENT STATES (CIS)

Current information (Y/N): Y

RCS size: SMALL

Orbital parameters

Period: 104.879 minutes

Inclination: 82.9883 deg

SMA: 7366.92 km

Apoapsis: 1067.132 km

Periapsis: 910.437 km

RAAN: 101.2415 deg

Eccentricy: 0.01063508

Argument of periapsis: 164.8756 deg

Mean anomaly: 358.6074 deg

Mean motion: 13.73010525 rev/day

Mean motion (dot): 0.00002246 rev/day2

B* drag term: 0.002320873 1/REarth

Two-line elements (TLE)

Creation date: Oct. 25, 2025, 3:11 a.m.

Reference frame: TEME

Reference center: EARTH

Epoch: Oct. 24, 2025, 10:48 p.m. UTC

TLE line 0: 0 COSMOS 1275 DEB

TLE line 1: 1 17638U 81053LH 25297.95006611 .00002246 00000-0 23209-2 0 9997

TLE line 2: 2 17638 82.9883 101.2415 0106351 164.8756 358.6074 13.73010525 12634

Live tracking on map

Real-time ground track for satellite COSMOS 1275 DEB.

In-orbit conjunctions

A list of the most updated potential collisions computed for object COSMOS 1275 DEB.

Target Orbit TCA Probability of collision Miss distance Type
SL-8 R/B LEO 2025-04-05 12:29:04 0.0001622453 607.0 (m) ROCKET BODY
CALSPHERE 1 SSO 2025-01-31 05:54:17 0.0001309519 998.0 (m) PAYLOAD

Associated space launch

Navigation satellite providing location information for the Tsiklon-B navigation system

COSMOS 1275 DEB was lifted into orbit during the mission ‘Kosmos-3M | Parus 27’, on board a Kosmos-3M space rocket.

The launch took place on June 4, 1981, 3:41 p.m. from 132/2.

For more information about the launch, click the button.

Launch to space Kosmos-3M | Parus 27
Kosmos-3M | Parus 27

Agency: N/A

Status: Launch Successful

Launch date: June 4, 1981, 3:41 p.m. UTC

Rocket: Kosmos-3M

Launch pad: 132/2

Location: Plesetsk Cosmodrome, Russian Federation

...

Latest news about this satellite

There are no fresh news available about this satellite. Check back as we update our databases every day.


Newsletter sign-up

Weekly statistics, charts and insights to help you stay on top of the space industry.